Regional Weather Roundup
Issued by NWS

Home | Current Version | Previous Version | Text Only | Print | Product List | Glossary On
Versions: 1 2 3 4 5 6 7 8 9 10 11 12 13 14 15 16 17 18 19 20 21 22 23 24 25 26 27 28 29 30 31 32 33 34 35 36 37 38 39 40 41 42 43 44 45 46 47 48 49 50
000
ASUS43 KMPX 221601
RWRMN
WEATHER ROUNDUP FOR MINNESOTA
NATIONAL WEATHER SERVICE TWIN CITIES/CHANHASSEN MN
1100 AM CDT MON SEP 22 2014


NOTE: "FAIR" INDICATES FEW OR NO CLOUDS BELOW 12,000 FEET WITH NO
SIGNIFICANT WEATHER AND/OR OBSTRUCTIONS TO VISIBILITY. N/A MEANS
CURRENT SKY AND/OR WEATHER CONDITIONS ARE NOT AVAILABLE.

MNZ060>063-068>070-221700-
   Twin Cities Metro

CITY           SKY/WX    TMP DP  RH WIND       PRES   REMARKS
TWIN CITIES    SUNNY     61  50  67 VRB5      30.27F
ST PAUL        SUNNY     61  51  70 SW7       30.27F
CRYSTAL        SUNNY     64  50  60 SW7       30.25F
BLAINE         SUNNY     63  54  72 W6        30.25F
LAKEVILLE      SUNNY     61  52  72 W8        30.27F
EDEN PRAIRIE   SUNNY     60  52  74 VRB5      30.26F
SOUTH ST PAUL  SUNNY     62  50  65 W6        30.27S
LAKE ELMO      FAIR      61  52  72 W7        30.27F
$$
MNZ001>005-007-008-013>017-022>024-027-028-221700-
   Northwest Minnesota

CITY           SKY/WX    TMP DP  RH WIND       PRES   REMARKS
BEMIDJI        SUNNY     63  50  61 SW8       30.17F
HALLOCK        SUNNY     63  52  67 SW6       30.10F
ROSEAU         SUNNY     66  52  59 W7        30.11F
WARROAD        SUNNY     63  54  72 SW8       30.11S
THIEF RVR FALL MOSUNNY   63  50  63 SW8       30.15S
CROOKSTON      SUNNY     61  52  72 S8        30.16S
FOSSTON        SUNNY     63  54  72 CALM      30.18F
DETROIT LAKES  SUNNY     63  50  63 SW8       30.21S
MOORHEAD       SUNNY     63  54  72 SW8       30.18F
PARK RAPIDS    SUNNY     64  49  57 W10       30.20S
MAHNOMEN       FAIR      60  50  69 SW7       30.19S
$$
MNZ006-009>011-018-025>026-221700-
   North Central Minnesota

CITY           SKY/WX    TMP DP  RH WIND       PRES   REMARKS
BAUDETTE       SUNNY     64  50  60 SW9       30.11F
FLAG ISLAND    SUNNY     63  48  59 W12       30.06F
INTL FALLS     SUNNY     61  51  70 W9        30.12F
WASKISH        SUNNY     61  54  77 CALM      30.16S
BIG FORK       SUNNY     64  52  63 SW5       30.17S
LONGVILLE      SUNNY     63  52  67 S6        30.20S
GRAND RAPIDS   SUNNY     61  48  63 W10G16    30.20S
CRANE LAKE     SUNNY     61  50  67 W6        30.15F
ORR            SUNNY     61  48  63 SW5       30.14S
COOK           SUNNY     61  50  67 W7        30.16F
WALKER         FAIR      62  49  62 W8        30.19S
$$
MNZ012-019>021-037-221700-
   Northeast Minnesota

CITY           SKY/WX    TMP DP  RH WIND       PRES   REMARKS
DULUTH         SUNNY     63  49  60 W13G24    30.19F
ELY            SUNNY     61  48  63 SW8       30.15F
HIBBING        SUNNY     63  50  62 W8        30.18F
EVELETH        SUNNY     59  52  77 W8        30.18F
DULUTH HARBOR  SUNNY     61  54  77 SW8       30.20S
TWO HARBORS    SUNNY     63  48  59 W12       30.16S
SILVER BAY     SUNNY     63  54  72 W6        30.14F
GRAND MARAIS     N/A     56  50  80 W8        30.12F
G MARAIS ARPRT SUNNY     59  46  63 W9        30.14F
$$
MNZ029>031-032-039>041-046>048-054>057-064-221700-
   West Central Minnesota

CITY           SKY/WX    TMP DP  RH WIND       PRES   REMARKS
FERGUS FALLS   SUNNY     63  46  55 SW9       30.21F
WHEATON        SUNNY     64  48  55 SW7       30.22F
MORRIS         SUNNY     64  54  68 SW6       30.22F
ALEXANDRIA     SUNNY     62  51  67 SW9       30.24F
ELBOW LAKE     FAIR      62  51  67 SW8       30.21F
WADENA         SUNNY     63  50  63 W8        30.21S
GLENWOOD       SUNNY     63  52  67 W7        30.24F
APPLETON       SUNNY     66  52  59 SW7       30.23F
BENSON         SUNNY     63  52  67 W5        30.24F
ORTONVILLE     SUNNY     64  50  59 SW8       30.22F
MADISON        SUNNY     70  52  52 SW9       30.23F
WILLMAR        FAIR      63  50  63 W6        30.26F
$$
MNZ033>034-036-042>043-049>051-058-059-221700-
   Central Minnesota

CITY           SKY/WX    TMP DP  RH WIND       PRES   REMARKS
ST CLOUD       SUNNY     66  52  60 SW8       30.24F
SAUK CENTRE    FAIR      63  50  63 SW9       30.24S
PAYNESVILLE    SUNNY     60  50  69 S7        30.25F
AITKIN         SUNNY     64  54  68 SW7       30.21S
PINE RIVER     SUNNY     63  52  67 NW5       30.24S
BRAINERD       SUNNY     61  50  67 W7        30.23F
STAPLES        SUNNY     63  50  63 W6        30.22S
LONG PRAIRIE   FAIR      61  50  67 SW5       30.24S
LITTLE FALLS   SUNNY     61  48  63 CALM      30.23F
LITCHFIELD     SUNNY     63  54  72 W5        30.26F
BUFFALO        SUNNY     62  51  67 SW5       30.26F
MAPLE LAKE     SUNNY     63  53  70 SW6       30.26F
$$
MNZ037-044-045-052-053-221700-
   East Central Minnesota

CITY           SKY/WX    TMP DP  RH WIND       PRES   REMARKS
PRINCETON      SUNNY     63  54  72 SW7       30.25S
MORA           SUNNY     61  50  67 W7        30.25F
CAMBRIDGE      SUNNY     64  50  59 W7        30.23F
RUSH CITY      SUNNY     61  52  71 W3        30.25F
MOOSE LAKE     SUNNY     63  50  63 W8        30.20F
HINCKLEY       FAIR      61  52  72 W9        30.24F
CLOQUET        SUNNY     61  48  63 W13G18    30.20F
MCGREGOR       SUNNY     61  52  72 W6        30.22S
$$
MNZ071>073-080-081-089-090-097-098-221700-
   Southwest Minnesota

CITY           SKY/WX    TMP DP  RH WIND       PRES   REMARKS
MONTEVIDEO     SUNNY     66  55  68 W7        30.25F
GRANITE FALLS  SUNNY     65  51  60 SW6       30.26F
CANBY          SUNNY     66  50  55 SW7       30.25F
MARSHALL       SUNNY     66  48  52 SW10      30.25S
REDWOOD FALLS  SUNNY     64  51  62 SW9       30.26F
OLIVIA         SUNNY     63  50  63 SW6       30.25F
PIPESTONE      SUNNY     64  46  52 SW8       30.27S
WINDOM         SUNNY     64  52  63 S7        30.29F
WORTHINGTON    SUNNY     63  48  59 SW9       30.29F
JACKSON        SUNNY     63  48  59 SW6       30.30F
TRACY          SUNNY     66  50  57 SW7G16    30.27F
SLAYTON        SUNNY     64  47  54 SW13      30.28F
$$
MNZ065>067-074>077-082>085-091>093-221700-
   South Central Minnesota

CITY           SKY/WX    TMP DP  RH WIND       PRES   REMARKS
MANKATO        SUNNY     63  48  59 W5        30.28F
NEW ULM        SUNNY     63  54  72 SW7       30.27F
ST JAMES       SUNNY     64  50  59 SW5       30.29F
FAIRMONT       SUNNY     64  48  55 SW8       30.29F
GLENCOE        SUNNY     64  50  61 SW3       30.26F
FARIBAULT      SUNNY     64  48  55 W6        30.29S
OWATONNA       SUNNY     61  50  67 W5        30.29S
WASECA         SUNNY     59  46  63 W5        30.30F
ALBERT LEA     SUNNY     63  50  63 W7        30.29F
$$
MNZ078>079-086>088-094>096-221700-
   Southeast Minnesota

CITY           SKY/WX    TMP DP  RH WIND       PRES   REMARKS
ROCHESTER      SUNNY     61  51  70 W8        30.30S
RED WING       SUNNY     63  54  72 W7        30.26F
STANTON        SUNNY     62  51  68 W9        30.27F
DODGE CENTER   SUNNY     59  52  77 NW8       30.29S
WINONA         SUNNY     61  52  72 CALM      30.27F
AUSTIN         SUNNY     61  52  72 W8        30.29F
PRESTON        SUNNY     61  53  75 W9        30.30F
$$
ABBREVIATIONS USED IN REMARKS
   TC - TEMPERATURES IN CELSIUS
  WCI - WIND CHILL INDEX
   HX - HEAT INDEX
  VSB - VISIBILITY
$$


USA.gov is the U.S. government's official web portal to all federal, state and local government web resources and services.